Meteo Giornale » Osservazioni meteo Tailandia » Chon Buri

ore: 01:00 - Osservazioni Meteo Chon Buri
Lat. 13° 22' N Lon. 100° 59' E Alt. 1 metri s.l.m.

poco_nuvoloso

27 °C

Poco Nuvoloso

Temp. 24 Ore

23 °C

32 °C

Nord

3.7 Km/h

Dew point 26 °C

Umidità 94 %

Visibilità  10 Km

Il sole sorge alle ore 06:04

Il sole tramonta alle ore 18:27

Data e Ora Cielo e Fenomeni T °C DP °C Um. % Pres. hPa Vis. km Vento km/h
Oggi h: 01:00 poco_nuvoloso Poco Nuvoloso 27 26 94 1010 10 N 3.7
Oggi h: 00:30 poco_nuvoloso Poco Nuvoloso 27 26 94 1010 10 N 3.7
Oggi h: 00:00 molto_nuvoloso Molto Nuvoloso 27 26 94 1010 10 N 1.8
Ieri h: 23:30 molto_nuvoloso Molto Nuvoloso 26 26 100 1010 10 N 0
Ieri h: 23:00 molto_nuvoloso Molto Nuvoloso 27 26 94 1011 10 N 3.7
Ieri h: 22:30 molto_nuvoloso Molto Nuvoloso 26 26 100 1011 10 N 5.5
Ieri h: 22:00 coperto_pioggia Pioggia 26 26 100 1011 10 N 5.5
Ieri h: 21:30 coperto_pioggia Pioggia 26 26 100 1011 10 N 3.7
Ieri h: 21:00 coperto_pioggia Pioggia 26 26 100 1010 10 N 0
Ieri h: 20:30 coperto_pioggia Pioggia 26 26 100 1010 10 N 0
Ieri h: 20:00 coperto_pioggia Pioggia 26 26 100 1009 10 N 5.5
Ieri h: 19:30 coperto_pioggia Pioggia 26 26 100 1008 10 S/SO 11.1
Ieri h: 19:00 coperto_pioggia Pioggia 26 26 100 1008 10 S/SO 9.3
Ieri h: 18:30 coperto_pioggia Pioggia 26 26 100 1008 10 SO 7.4
Ieri h: 18:00 coperto_pioggia Pioggia 25 24 94 1008 10 SO 11.1
Ieri h: 17:30 nuvoloso_temporali Temporale 25 24 94 1007 10 SO 7.4
Ieri h: 17:00 coperto_pioggia Pioggia 23 23 100 1008 0.8 SO 20.3
Ieri h: 16:30 nuvoloso Nuvoloso 30 23 66 1007 10 O/SO 14.8
Ieri h: 16:00 nuvoloso Nuvoloso 30 23 66 1007 10 O 13
Ieri h: 15:30 nuvoloso Nuvoloso 30 23 66 1007 10 O 14.8
Ieri h: 15:00 nuvoloso Nuvoloso 30 23 66 1007 10 O/SO 16.7
Ieri h: 14:30 coperto_pioggia Pioggia 30 24 70 1007 10 O/SO 14.8
Ieri h: 14:00 coperto_pioggia Pioggia 31 23 62 1007 10 O 18.5
Ieri h: 13:30 coperto_pioggia Pioggia 31 22 58 1007 10 O 18.5
Ieri h: 13:00 coperto_pioggia Pioggia 32 23 59 1008 10 O 14.8
Ieri h: 12:30 coperto_pioggia Pioggia 32 23 59 1008 10 O 16.7
Ieri h: 12:00 coperto_pioggia Pioggia 31 23 62 1009 10 O 14.8
Ieri h: 11:30 nuvoloso Nuvoloso 32 23 59 1009 10 O/SO 16.7
Ieri h: 11:00 nuvoloso Nuvoloso 32 22 55 1009 10 O/SO 16.7
Ieri h: 10:30 nuvoloso Nuvoloso 32 22 55 1009 10 O/SO 14.8
Ieri h: 10:00 poco_nuvoloso Poco Nuvoloso 31 23 62 1009 10 SO 16.7
Ieri h: 09:30 poco_nuvoloso Poco Nuvoloso 30 24 70 1009 10 SO 16.7
Ieri h: 09:00 poco_nuvoloso Poco Nuvoloso 30 24 70 1009 10 S/SO 13
Ieri h: 08:30 poco_nuvoloso Poco Nuvoloso 30 25 74 1009 10 SO 11.1
Ieri h: 08:00 poco_nuvoloso Poco Nuvoloso 29 26 83 1009 10 S/SO 7.4
Ieri h: 07:30 poco_nuvoloso Poco Nuvoloso 29 27 89 1009 10 N 5.5
Ieri h: 07:00 poco_nuvoloso Poco Nuvoloso 28 28 100 1008 10 N 1.8
Ieri h: 06:30 poco_nuvoloso Poco Nuvoloso 28 28 100 1008 10 N 3.7
Ieri h: 06:00 poco_nuvoloso Poco Nuvoloso 28 28 100 1008 10 N 0
Ieri h: 05:30 poco_nuvoloso Poco Nuvoloso 28 28 100 1008 10 N 5.5
Ieri h: 05:00 poco_nuvoloso Poco Nuvoloso 28 28 100 1008 10 N 3.7
Ieri h: 04:30 poco_nuvoloso Poco Nuvoloso 27 27 100 1008 10 N 3.7
Ieri h: 04:00 poco_nuvoloso Poco Nuvoloso 27 27 100 1008 10 N 3.7
Ieri h: 03:30 poco_nuvoloso Poco Nuvoloso 28 28 100 1008 10 N 5.5
Ieri h: 03:00 poco_nuvoloso Poco Nuvoloso 27 27 100 1008 10 N 5.5
Ieri h: 02:30 poco_nuvoloso Poco Nuvoloso 27 27 100 1008 10 N 5.5
Ieri h: 02:00 poco_nuvoloso Poco Nuvoloso 27 26 94 1008 10 N 5.5